TimeEST,TemperatureF,Dew PointF,Humidity,Sea Level PressureIn,VisibilityMPH,Wind Direction,Wind SpeedMPH,Gust SpeedMPH,PrecipitationIn,Events,Conditions,WindDirDegrees,DateUTC
12:53 AM,55.0,53.1,93,30.14,10.0,Calm,Calm,-,N/A,,Mostly Cloudy,0,2012-12-24 05:53:00
1:53 AM,53.1,50.0,89,30.14,10.0,North,3.5,-,N/A,,Scattered Clouds,350,2012-12-24 06:53:00
2:53 AM,57.9,53.1,84,30.11,10.0,Calm,Calm,-,N/A,,Clear,0,2012-12-24 07:53:00
3:53 AM,54.0,52.0,93,30.10,10.0,Calm,Calm,-,N/A,,Partly Cloudy,0,2012-12-24 08:53:00
4:53 AM,53.1,50.0,89,30.08,10.0,Calm,Calm,-,N/A,,Clear,0,2012-12-24 09:53:00
5:53 AM,57.0,53.1,87,30.09,10.0,Calm,Calm,-,N/A,,Clear,0,2012-12-24 10:53:00
6:53 AM,54.0,52.0,93,30.11,10.0,Calm,Calm,-,N/A,,Clear,0,2012-12-24 11:53:00
7:53 AM,57.9,55.0,90,30.12,10.0,Calm,Calm,-,N/A,,Clear,0,2012-12-24 12:53:00
8:53 AM,64.9,55.0,70,30.13,10.0,NE,5.8,-,N/A,,Partly Cloudy,50,2012-12-24 13:53:00
9:53 AM,72.0,55.9,57,30.14,10.0,ENE,3.5,-,N/A,,Scattered Clouds,60,2012-12-24 14:53:00
10:53 AM,77.0,57.0,50,30.12,10.0,SSE,12.7,19.6,N/A,,Scattered Clouds,150,2012-12-24 15:53:00
11:53 AM,78.1,57.0,48,30.11,10.0,SSE,9.2,18.4,N/A,,Mostly Cloudy,150,2012-12-24 16:53:00
12:53 PM,78.1,55.0,45,30.07,10.0,SE,10.4,-,N/A,,Partly Cloudy,130,2012-12-24 17:53:00
1:53 PM,78.1,55.9,46,30.04,10.0,SE,11.5,-,N/A,,Scattered Clouds,130,2012-12-24 18:53:00
2:53 PM,77.0,55.9,48,30.04,10.0,SSE,8.1,-,N/A,,Clear,160,2012-12-24 19:53:00
3:53 PM,75.9,55.9,50,30.04,10.0,SSE,5.8,-,N/A,,Mostly Cloudy,160,2012-12-24 20:53:00
4:53 PM,73.0,55.9,55,30.04,10.0,SSE,8.1,-,N/A,,Clear,160,2012-12-24 21:53:00
5:53 PM,70.0,57.0,63,30.04,10.0,SE,4.6,-,N/A,,Clear,140,2012-12-24 22:53:00
6:53 PM,69.1,57.0,65,30.04,10.0,Calm,Calm,-,N/A,,Clear,0,2012-12-24 23:53:00
7:53 PM,68.0,59.0,73,30.03,10.0,South,4.6,-,N/A,,Clear,170,2012-12-25 00:53:00
8:53 PM,68.0,57.9,70,30.03,10.0,South,3.5,-,N/A,,Clear,170,2012-12-25 01:53:00
9:53 PM,64.0,57.0,78,30.04,10.0,NE,3.5,-,N/A,,Clear,40,2012-12-25 02:53:00
10:53 PM,63.0,57.9,84,30.05,10.0,Calm,Calm,-,N/A,,Clear,0,2012-12-25 03:53:00
11:53 PM,61.0,57.0,87,30.03,10.0,Calm,Calm,-,N/A,,Clear,0,2012-12-25 04:53:00